2016-063B

Last updated on Oct. 20, 2016, 9:17 a.m. UTC

1 41821U 16063B   16294.06768581  .00739627  11985-4  23922-3 0  9998
2 41821  51.6220 155.4806 0031254  91.6802 268.7946 16.23948228    90

Satellite is not in orbit.